DAL8673 KORD-KRAP

Flight info

Callsign DAL8673
Flight time 1h 55m
Altitude 34000
Route MYKIE MONNY IANNA BRSKA RAP
Aircraft B738/M-SDE2E3FGHIRWXY/LB1

Departure

Time 2026-05-05 11:20
Airport Chicago O'Hare International Airport (KORD)

Arrival

Time 2026-05-05 13:16
Airport Rapid City Regional Airport (KRAP)
Time Latitude Longitude Altitude Speed Heading
2026-05-05 10:59 41.97564 -87.89219 651 ft 0 kts 89°
2026-05-05 11:12 41.97564 -87.89226 651 ft 2 kts 80°
2026-05-05 11:12 41.97561 -87.89246 651 ft 2 kts 91°
2026-05-05 11:12 41.97562 -87.89265 651 ft 2 kts 88°
2026-05-05 11:13 41.97561 -87.89285 651 ft 2 kts 89°
2026-05-05 11:13 41.97562 -87.89306 651 ft 2 kts 112°
2026-05-05 11:13 41.97570 -87.89323 651 ft 2 kts 134°
2026-05-05 11:13 41.97582 -87.89335 651 ft 2 kts 157°
2026-05-05 11:14 41.97595 -87.89339 651 ft 0 kts 177°
2026-05-05 11:14 41.97601 -87.89339 651 ft 1 kts 181°
2026-05-05 11:14 41.97602 -87.89339 651 ft 0 kts 180°
2026-05-05 11:15 41.97588 -87.89339 651 ft 6 kts 179°
2026-05-05 11:16 41.97516 -87.89338 651 ft 14 kts 180°
2026-05-05 11:16 41.97401 -87.89337 653 ft 18 kts 180°
2026-05-05 11:16 41.97271 -87.89336 655 ft 19 kts 177°
2026-05-05 11:16 41.97193 -87.89243 655 ft 17 kts 90°
2026-05-05 11:17 41.97194 -87.89077 654 ft 18 kts 90°
2026-05-05 11:17 41.97194 -87.88902 654 ft 18 kts 90°
2026-05-05 11:17 41.97195 -87.88724 654 ft 19 kts 89°
2026-05-05 11:17 41.97196 -87.88537 654 ft 20 kts 89°
2026-05-05 11:18 41.97197 -87.88348 654 ft 20 kts 90°
2026-05-05 11:18 41.97196 -87.88145 651 ft 21 kts 90°
2026-05-05 11:18 41.97117 -87.88041 651 ft 16 kts 177°
2026-05-05 11:18 41.97013 -87.88023 651 ft 13 kts 152°
2026-05-05 11:19 41.96959 -87.88019 652 ft 0 kts 221°
2026-05-05 11:19 41.96956 -87.88022 652 ft 4 kts 221°
2026-05-05 11:19 41.96795 -87.88223 654 ft 66 kts 224°
2026-05-05 11:19 41.96275 -87.88829 655 ft 131 kts 222°
2026-05-05 11:20 41.95443 -87.89768 840 ft 170 kts 221°
2026-05-05 11:20 41.94459 -87.90812 1358 ft 198 kts 220°
2026-05-05 11:20 41.93296 -87.92045 1810 ft 227 kts 220°
2026-05-05 11:20 41.92183 -87.93568 2227 ft 227 kts 240°
2026-05-05 11:21 41.91648 -87.95488 2632 ft 222 kts 264°
2026-05-05 11:21 41.91745 -87.97520 2999 ft 217 kts 288°
2026-05-05 11:21 41.92245 -87.99412 3450 ft 216 kts 291°
2026-05-05 11:21 41.92796 -88.01310 3919 ft 224 kts 292°
2026-05-05 11:22 41.93382 -88.03281 4388 ft 227 kts 292°
2026-05-05 11:22 41.93972 -88.05250 4852 ft 227 kts 292°
2026-05-05 11:22 41.94554 -88.07185 5288 ft 227 kts 293°
2026-05-05 11:22 41.95151 -88.09141 5739 ft 227 kts 292°
2026-05-05 11:23 41.95746 -88.11118 6190 ft 227 kts 292°
2026-05-05 11:23 41.96346 -88.13120 6697 ft 244 kts 291°
2026-05-05 11:23 41.96988 -88.15265 7298 ft 250 kts 291°
2026-05-05 11:23 41.97639 -88.17445 7788 ft 251 kts 290°
2026-05-05 11:24 41.98285 -88.19611 8246 ft 252 kts 289°
2026-05-05 11:24 41.98934 -88.21789 8691 ft 254 kts 289°
2026-05-05 11:24 41.99592 -88.23998 9140 ft 256 kts 289°
2026-05-05 11:24 42.00261 -88.26246 9595 ft 258 kts 288°
2026-05-05 11:25 42.00927 -88.28489 10044 ft 261 kts 287°
2026-05-05 11:25 42.01604 -88.30769 10504 ft 267 kts 287°
2026-05-05 11:25 42.02311 -88.33156 11079 ft 285 kts 287°
2026-05-05 11:25 42.03064 -88.35698 11693 ft 302 kts 286°
2026-05-05 11:26 42.03851 -88.38354 12273 ft 310 kts 286°
2026-05-05 11:26 42.04650 -88.41057 12773 ft 311 kts 286°
2026-05-05 11:26 42.05442 -88.43737 13249 ft 311 kts 286°
2026-05-05 11:26 42.06246 -88.46462 13705 ft 312 kts 285°
2026-05-05 11:27 42.07046 -88.49177 14159 ft 313 kts 285°
2026-05-05 11:27 42.07845 -88.51886 14609 ft 314 kts 285°
2026-05-05 11:27 42.08653 -88.54633 15064 ft 315 kts 285°
2026-05-05 11:27 42.09455 -88.57359 15514 ft 316 kts 285°
2026-05-05 11:28 42.10266 -88.60123 15965 ft 317 kts 285°
2026-05-05 11:28 42.11074 -88.62876 16406 ft 318 kts 285°
2026-05-05 11:28 42.11888 -88.65656 16883 ft 319 kts 285°
2026-05-05 11:28 42.12697 -88.68420 17373 ft 321 kts 285°
2026-05-05 11:29 42.13512 -88.71209 17862 ft 322 kts 285°
2026-05-05 11:29 42.14338 -88.74036 18354 ft 323 kts 285°
2026-05-05 11:29 42.15155 -88.76835 18840 ft 325 kts 285°
2026-05-05 11:29 42.15910 -88.79709 19301 ft 322 kts 277°
2026-05-05 11:30 42.16108 -88.82647 19766 ft 316 kts 267°
2026-05-05 11:30 42.16131 -88.85622 20263 ft 316 kts 266°
2026-05-05 11:30 42.16101 -88.88599 20759 ft 317 kts 265°
2026-05-05 11:30 42.16048 -88.91567 21250 ft 318 kts 265°
2026-05-05 11:31 42.15985 -88.94531 21738 ft 319 kts 265°
2026-05-05 11:31 42.15915 -88.97481 22223 ft 320 kts 266°
2026-05-05 11:31 42.15841 -89.00504 22717 ft 321 kts 266°
2026-05-05 11:31 42.15768 -89.03474 23201 ft 322 kts 266°
2026-05-05 11:32 42.15692 -89.06509 23694 ft 324 kts 267°
2026-05-05 11:32 42.15615 -89.09547 24187 ft 326 kts 267°
2026-05-05 11:32 42.15536 -89.12624 24684 ft 328 kts 267°
2026-05-05 11:32 42.15457 -89.15668 25173 ft 330 kts 267°
2026-05-05 11:33 42.15375 -89.18776 25670 ft 332 kts 267°
2026-05-05 11:33 42.15292 -89.21871 26161 ft 334 kts 267°
2026-05-05 11:33 42.15208 -89.24992 26652 ft 336 kts 268°
2026-05-05 11:33 42.15121 -89.28155 27145 ft 338 kts 268°
2026-05-05 11:34 42.15035 -89.31302 27631 ft 340 kts 268°
2026-05-05 11:34 42.14945 -89.34495 28121 ft 342 kts 268°
2026-05-05 11:34 42.14856 -89.37723 28607 ft 344 kts 268°
2026-05-05 11:34 42.14763 -89.40904 29076 ft 345 kts 268°
2026-05-05 11:35 42.14671 -89.44176 29558 ft 346 kts 268°
2026-05-05 11:35 42.14579 -89.47378 30030 ft 347 kts 268°
2026-05-05 11:35 42.14481 -89.50651 30463 ft 349 kts 269°
2026-05-05 11:35 42.14388 -89.53889 30900 ft 350 kts 269°
2026-05-05 11:36 42.14288 -89.57187 31336 ft 351 kts 269°
2026-05-05 11:36 42.14189 -89.60445 31765 ft 351 kts 269°
2026-05-05 11:36 42.14091 -89.63696 32194 ft 351 kts 269°
2026-05-05 11:36 42.13987 -89.67021 32637 ft 351 kts 269°
2026-05-05 11:37 42.13889 -89.70263 33094 ft 351 kts 269°
2026-05-05 11:37 42.13783 -89.73549 33546 ft 350 kts 269°
2026-05-05 11:37 42.13683 -89.76839 33853 ft 353 kts 269°
2026-05-05 11:38 42.13470 -89.83575 33926 ft 372 kts 269°
2026-05-05 11:38 42.13238 -89.90593 33887 ft 374 kts 269°
2026-05-05 11:39 42.13009 -89.97564 33845 ft 371 kts 269°
2026-05-05 11:39 42.12775 -90.04478 33847 ft 371 kts 269°
2026-05-05 11:40 42.12537 -90.11401 33845 ft 372 kts 269°
2026-05-05 11:40 42.12294 -90.18348 33846 ft 372 kts 269°
2026-05-05 11:41 42.12046 -90.25297 33841 ft 372 kts 269°
2026-05-05 11:41 42.11795 -90.32233 33845 ft 372 kts 269°
2026-05-05 11:42 42.11541 -90.39176 33845 ft 372 kts 269°
2026-05-05 11:42 42.11279 -90.46139 33844 ft 372 kts 269°
2026-05-05 11:43 42.11016 -90.53057 33843 ft 371 kts 269°
2026-05-05 11:43 42.10749 -90.59988 33849 ft 372 kts 269°
2026-05-05 11:44 42.10476 -90.66952 33874 ft 377 kts 269°
2026-05-05 11:44 42.10190 -90.74091 33915 ft 382 kts 269°
2026-05-05 11:45 42.09906 -90.81185 33855 ft 378 kts 268°
2026-05-05 11:45 42.09614 -90.88231 33856 ft 379 kts 269°
2026-05-05 11:46 42.09317 -90.95299 33854 ft 379 kts 269°
2026-05-05 11:46 42.09021 -91.02399 33850 ft 379 kts 269°
2026-05-05 11:47 42.08715 -91.09464 33841 ft 379 kts 269°
2026-05-05 11:47 42.08406 -91.16572 33843 ft 380 kts 269°
2026-05-05 11:48 42.08074 -91.27198 33807 ft 378 kts 277°
2026-05-05 11:48 42.09406 -91.34019 33859 ft 380 kts 286°
2026-05-05 11:49 42.11026 -91.40781 33846 ft 379 kts 287°
2026-05-05 11:49 42.12666 -91.47494 33838 ft 379 kts 287°
2026-05-05 11:50 42.14308 -91.54195 33845 ft 379 kts 287°
2026-05-05 11:50 42.15956 -91.60944 33852 ft 379 kts 287°
2026-05-05 11:51 42.17586 -91.67663 33879 ft 378 kts 286°
2026-05-05 11:51 42.19229 -91.74419 33885 ft 379 kts 287°
2026-05-05 11:52 42.20861 -91.81154 33888 ft 379 kts 286°
2026-05-05 11:52 42.22490 -91.87907 33892 ft 379 kts 286°
2026-05-05 11:53 42.24113 -91.94663 33891 ft 379 kts 286°
2026-05-05 11:53 42.25725 -92.01383 33890 ft 379 kts 286°
2026-05-05 11:54 42.27346 -92.08157 33892 ft 378 kts 286°
2026-05-05 11:54 42.28957 -92.14919 33887 ft 379 kts 286°
2026-05-05 11:55 42.30561 -92.21666 33883 ft 379 kts 286°
2026-05-05 11:55 42.32161 -92.28424 33877 ft 378 kts 287°
2026-05-05 11:56 42.33759 -92.35181 33877 ft 379 kts 286°
2026-05-05 11:56 42.35351 -92.41937 33876 ft 379 kts 286°
2026-05-05 11:57 42.36946 -92.48724 33874 ft 378 kts 286°
2026-05-05 11:57 42.38534 -92.55494 33885 ft 379 kts 286°
2026-05-05 11:58 42.40116 -92.62293 33882 ft 379 kts 286°
2026-05-05 11:58 42.41697 -92.69087 33900 ft 379 kts 285°
2026-05-05 11:59 42.43276 -92.75880 33902 ft 379 kts 285°
2026-05-05 11:59 42.44840 -92.82648 33904 ft 379 kts 285°
2026-05-05 12:00 42.46414 -92.89481 33910 ft 379 kts 285°
2026-05-05 12:00 42.47982 -92.96309 33915 ft 382 kts 286°
2026-05-05 12:01 42.49560 -93.03184 33921 ft 385 kts 286°
2026-05-05 12:01 42.51123 -93.10175 33922 ft 388 kts 286°
2026-05-05 12:02 42.52628 -93.17166 33925 ft 389 kts 286°
2026-05-05 12:02 42.54133 -93.24204 33923 ft 389 kts 286°
2026-05-05 12:03 42.55623 -93.31207 33924 ft 388 kts 286°
2026-05-05 12:03 42.57116 -93.38245 33920 ft 388 kts 286°
2026-05-05 12:04 42.58604 -93.45290 33916 ft 388 kts 286°
2026-05-05 12:04 42.60085 -93.52319 33914 ft 388 kts 286°
2026-05-05 12:05 42.61570 -93.59384 33907 ft 389 kts 286°
2026-05-05 12:05 42.63043 -93.66430 33914 ft 389 kts 285°
2026-05-05 12:06 42.64506 -93.73444 33919 ft 389 kts 285°
2026-05-05 12:06 42.65974 -93.80519 33918 ft 389 kts 286°
2026-05-05 12:07 42.67430 -93.87552 33915 ft 389 kts 286°
2026-05-05 12:07 42.68890 -93.94615 33915 ft 389 kts 285°
2026-05-05 12:08 42.70344 -94.01688 33914 ft 389 kts 285°
2026-05-05 12:08 42.71795 -94.08761 33908 ft 389 kts 285°
2026-05-05 12:09 42.73235 -94.15819 33907 ft 388 kts 285°
2026-05-05 12:09 42.74675 -94.22893 33903 ft 388 kts 285°
2026-05-05 12:10 42.76107 -94.29971 33894 ft 389 kts 286°
2026-05-05 12:10 42.77547 -94.37075 33894 ft 389 kts 286°
2026-05-05 12:11 42.78964 -94.44125 33889 ft 388 kts 286°
2026-05-05 12:11 42.80380 -94.51184 33891 ft 389 kts 286°
2026-05-05 12:12 42.81797 -94.58262 33913 ft 389 kts 286°
2026-05-05 12:12 42.83212 -94.65355 33899 ft 389 kts 285°
2026-05-05 12:13 42.84628 -94.72484 33904 ft 389 kts 285°
2026-05-05 12:13 42.86026 -94.79551 33910 ft 388 kts 285°
2026-05-05 12:14 42.87413 -94.86616 33906 ft 384 kts 286°
2026-05-05 12:14 42.88783 -94.93591 33906 ft 378 kts 287°
2026-05-05 12:15 42.90136 -95.00505 33907 ft 376 kts 288°
2026-05-05 12:15 42.91474 -95.07356 33902 ft 376 kts 288°
2026-05-05 12:16 42.92824 -95.14298 33907 ft 381 kts 289°
2026-05-05 12:16 42.94178 -95.21262 33929 ft 383 kts 289°
2026-05-05 12:17 42.95540 -95.28336 33911 ft 386 kts 289°
2026-05-05 12:17 42.96901 -95.35404 33913 ft 389 kts 289°
2026-05-05 12:18 42.98277 -95.42587 33911 ft 392 kts 290°
2026-05-05 12:18 42.99657 -95.49828 33918 ft 396 kts 290°
2026-05-05 12:19 43.01035 -95.57064 33915 ft 398 kts 290°
2026-05-05 12:19 43.02430 -95.64428 33912 ft 401 kts 290°
2026-05-05 12:20 43.03823 -95.71796 33910 ft 404 kts 289°
2026-05-05 12:20 43.05222 -95.79250 33928 ft 405 kts 290°
2026-05-05 12:21 43.06619 -95.86718 33896 ft 405 kts 290°
2026-05-05 12:21 43.08002 -95.94115 33897 ft 405 kts 289°
2026-05-05 12:22 43.09393 -96.01602 33901 ft 404 kts 290°
2026-05-05 12:22 43.10768 -96.09032 33916 ft 404 kts 290°
2026-05-05 12:23 43.12141 -96.16479 33917 ft 404 kts 289°
2026-05-05 12:23 43.13512 -96.23947 33919 ft 405 kts 289°
2026-05-05 12:24 43.14878 -96.31418 33926 ft 406 kts 289°
2026-05-05 12:24 43.16237 -96.38878 33922 ft 405 kts 290°
2026-05-05 12:25 43.17595 -96.46365 33954 ft 405 kts 289°
2026-05-05 12:25 43.18943 -96.53831 33945 ft 405 kts 290°
2026-05-05 12:26 43.20288 -96.61300 33935 ft 404 kts 289°
2026-05-05 12:26 43.21627 -96.68781 33945 ft 407 kts 289°
2026-05-05 12:27 43.22972 -96.76308 33944 ft 406 kts 289°
2026-05-05 12:27 43.24308 -96.83810 33952 ft 405 kts 289°
2026-05-05 12:28 43.25633 -96.91319 33955 ft 405 kts 289°
2026-05-05 12:28 43.26959 -96.98827 33955 ft 405 kts 289°
2026-05-05 12:29 43.28274 -97.06342 33961 ft 408 kts 290°
2026-05-05 12:29 43.29597 -97.13918 33959 ft 411 kts 290°
2026-05-05 12:30 43.30927 -97.21552 33958 ft 411 kts 291°
2026-05-05 12:30 43.32259 -97.29215 33989 ft 414 kts 291°
2026-05-05 12:31 43.33581 -97.36871 33975 ft 414 kts 291°
2026-05-05 12:31 43.34904 -97.44572 33960 ft 412 kts 291°
2026-05-05 12:32 43.36214 -97.52223 33961 ft 413 kts 291°
2026-05-05 12:32 43.37520 -97.59884 33963 ft 412 kts 291°
2026-05-05 12:33 43.38817 -97.67540 33962 ft 414 kts 290°
2026-05-05 12:33 43.40119 -97.75245 33959 ft 414 kts 290°
2026-05-05 12:34 43.41414 -97.82940 33962 ft 415 kts 290°
2026-05-05 12:34 43.42703 -97.90659 33956 ft 413 kts 291°
2026-05-05 12:35 43.43985 -97.98335 33969 ft 414 kts 291°
2026-05-05 12:35 43.45269 -98.06083 33962 ft 414 kts 291°
2026-05-05 12:36 43.46540 -98.13775 33972 ft 413 kts 290°
2026-05-05 12:36 43.47810 -98.21497 33971 ft 414 kts 290°
2026-05-05 12:37 43.49073 -98.29215 33960 ft 414 kts 291°
2026-05-05 12:37 43.50327 -98.36929 33963 ft 414 kts 291°
2026-05-05 12:38 43.51587 -98.44677 33965 ft 416 kts 291°
2026-05-05 12:38 43.52842 -98.52447 33965 ft 416 kts 290°
2026-05-05 12:39 43.54080 -98.60149 33965 ft 412 kts 290°
2026-05-05 12:39 43.55322 -98.67902 33975 ft 415 kts 290°
2026-05-05 12:40 43.56556 -98.75668 33971 ft 417 kts 290°
2026-05-05 12:40 43.57789 -98.83432 33964 ft 415 kts 290°
2026-05-05 12:41 43.59022 -98.91260 33970 ft 416 kts 290°
2026-05-05 12:41 43.60222 -98.98949 33982 ft 411 kts 291°
2026-05-05 12:42 43.61428 -99.06653 33994 ft 408 kts 291°
2026-05-05 12:42 43.62616 -99.14283 34000 ft 407 kts 292°
2026-05-05 12:43 43.63793 -99.21848 34017 ft 406 kts 292°
2026-05-05 12:43 43.64975 -99.29514 33989 ft 406 kts 292°
2026-05-05 12:44 43.66148 -99.37184 33988 ft 410 kts 292°
2026-05-05 12:44 43.67321 -99.44846 33990 ft 409 kts 292°
2026-05-05 12:45 43.68480 -99.52482 33987 ft 407 kts 292°
2026-05-05 12:45 43.69627 -99.60083 33988 ft 407 kts 292°
2026-05-05 12:46 43.70788 -99.67763 33998 ft 406 kts 291°
2026-05-05 12:46 43.71930 -99.75414 33994 ft 410 kts 292°
2026-05-05 12:47 43.73077 -99.83116 34005 ft 409 kts 292°
2026-05-05 12:47 43.74227 -99.90842 33989 ft 407 kts 292°
2026-05-05 12:48 43.75351 -99.98498 33997 ft 411 kts 292°
2026-05-05 12:48 43.76493 -100.06233 34014 ft 407 kts 292°
2026-05-05 12:49 43.77572 -100.13884 33994 ft 414 kts 289°
2026-05-05 12:49 43.78060 -100.21931 33987 ft 421 kts 285°
2026-05-05 12:50 43.78405 -100.30003 33969 ft 421 kts 284°
2026-05-05 12:50 43.78733 -100.38062 33975 ft 423 kts 285°
2026-05-05 12:51 43.79060 -100.46168 33975 ft 419 kts 284°
2026-05-05 12:51 43.79372 -100.54248 33975 ft 421 kts 285°
2026-05-05 12:52 43.79681 -100.62254 33968 ft 419 kts 284°
2026-05-05 12:52 43.79985 -100.70270 33973 ft 422 kts 284°
2026-05-05 12:53 43.80138 -100.74388 33616 ft 430 kts 284°
2026-05-05 12:53 43.80293 -100.78459 33235 ft 423 kts 283°
2026-05-05 12:53 43.80435 -100.82504 32813 ft 415 kts 284°
2026-05-05 12:53 43.80577 -100.86479 32385 ft 409 kts 284°
2026-05-05 12:54 43.80854 -100.94204 31606 ft 401 kts 284°
2026-05-05 12:54 43.80991 -100.98034 31220 ft 402 kts 284°
2026-05-05 12:54 43.81128 -101.01895 30844 ft 400 kts 283°
2026-05-05 12:55 43.81260 -101.05734 30448 ft 397 kts 283°
2026-05-05 12:55 43.81387 -101.09498 30054 ft 394 kts 283°
2026-05-05 12:55 43.81514 -101.13283 29660 ft 392 kts 283°
2026-05-05 12:55 43.81641 -101.17027 29276 ft 389 kts 283°
2026-05-05 12:56 43.81762 -101.20741 28879 ft 386 kts 283°
2026-05-05 12:56 43.81884 -101.24407 28485 ft 382 kts 283°
2026-05-05 12:56 43.82001 -101.28099 28093 ft 380 kts 283°
2026-05-05 12:56 43.82120 -101.31703 27706 ft 379 kts 283°
2026-05-05 12:57 43.82236 -101.35339 27315 ft 377 kts 283°
2026-05-05 12:57 43.82349 -101.38945 26923 ft 375 kts 283°
2026-05-05 12:57 43.82462 -101.42528 26534 ft 372 kts 282°
2026-05-05 12:57 43.82576 -101.46098 26147 ft 365 kts 282°
2026-05-05 12:58 43.82678 -101.49560 25741 ft 359 kts 282°
2026-05-05 12:58 43.82782 -101.52969 25346 ft 355 kts 282°
2026-05-05 12:58 43.82883 -101.56384 24922 ft 354 kts 282°
2026-05-05 12:58 43.82984 -101.59782 24491 ft 354 kts 282°
2026-05-05 12:59 43.83086 -101.63174 24087 ft 351 kts 281°
2026-05-05 12:59 43.83180 -101.66501 23601 ft 343 kts 281°
2026-05-05 12:59 43.83271 -101.69715 22948 ft 332 kts 281°
2026-05-05 13:00 43.83441 -101.75829 21902 ft 306 kts 281°
2026-05-05 13:00 43.83521 -101.78696 21499 ft 289 kts 281°
2026-05-05 13:01 43.83759 -101.86986 20340 ft 290 kts 281°
2026-05-05 13:01 43.83835 -101.89765 19961 ft 289 kts 281°
2026-05-05 13:01 43.83907 -101.92512 19580 ft 288 kts 281°
2026-05-05 13:01 43.83981 -101.95280 19196 ft 286 kts 281°
2026-05-05 13:02 43.84053 -101.98007 18814 ft 284 kts 281°
2026-05-05 13:02 43.84125 -102.00759 18426 ft 283 kts 281°
2026-05-05 13:02 43.84195 -102.03455 18046 ft 282 kts 280°
2026-05-05 13:02 43.84263 -102.06150 17662 ft 280 kts 281°
2026-05-05 13:03 43.84332 -102.08846 17278 ft 278 kts 280°
2026-05-05 13:03 43.84400 -102.11526 16891 ft 277 kts 280°
2026-05-05 13:03 43.84466 -102.14167 16509 ft 276 kts 280°
2026-05-05 13:03 43.84531 -102.16818 16124 ft 275 kts 280°
2026-05-05 13:04 43.84595 -102.19421 15745 ft 273 kts 280°
2026-05-05 13:04 43.84658 -102.22041 15359 ft 272 kts 280°
2026-05-05 13:04 43.84722 -102.24661 14973 ft 270 kts 279°
2026-05-05 13:04 43.84784 -102.27254 14593 ft 270 kts 279°
2026-05-05 13:05 43.84845 -102.29834 14236 ft 271 kts 279°
2026-05-05 13:05 43.84906 -102.32458 13840 ft 268 kts 279°
2026-05-05 13:05 43.84964 -102.35021 13449 ft 265 kts 279°
2026-05-05 13:05 43.85022 -102.37539 13066 ft 263 kts 279°
2026-05-05 13:06 43.85079 -102.40054 12682 ft 262 kts 279°
2026-05-05 13:06 43.85136 -102.42564 12298 ft 261 kts 279°
2026-05-05 13:06 43.85191 -102.45079 11912 ft 260 kts 278°
2026-05-05 13:06 43.85247 -102.47591 11526 ft 260 kts 278°
2026-05-05 13:07 43.85301 -102.50065 11147 ft 260 kts 278°
2026-05-05 13:07 43.85355 -102.52589 10758 ft 260 kts 278°
2026-05-05 13:07 43.85408 -102.55061 10378 ft 259 kts 278°
2026-05-05 13:07 43.85461 -102.57545 9996 ft 259 kts 278°
2026-05-05 13:08 43.85513 -102.60033 9613 ft 259 kts 278°
2026-05-05 13:08 43.85565 -102.62539 9227 ft 259 kts 277°
2026-05-05 13:08 43.85616 -102.65031 8843 ft 258 kts 277°
2026-05-05 13:08 43.85666 -102.67522 8464 ft 258 kts 276°
2026-05-05 13:09 43.85717 -102.70000 8086 ft 258 kts 276°
2026-05-05 13:09 43.85766 -102.72491 7706 ft 258 kts 276°
2026-05-05 13:09 43.85813 -102.74953 7352 ft 252 kts 276°
2026-05-05 13:09 43.85858 -102.77319 6992 ft 243 kts 276°
2026-05-05 13:10 43.85901 -102.79603 6648 ft 230 kts 276°
2026-05-05 13:10 43.85943 -102.81758 6259 ft 223 kts 276°
2026-05-05 13:10 43.85985 -102.83901 5885 ft 223 kts 275°
2026-05-05 13:10 43.86024 -102.86004 5566 ft 213 kts 275°
2026-05-05 13:11 43.86058 -102.87979 5480 ft 201 kts 275°
2026-05-05 13:11 43.86093 -102.89891 5496 ft 200 kts 275°
2026-05-05 13:11 43.86151 -102.91835 5503 ft 201 kts 282°
2026-05-05 13:11 43.86695 -102.93565 5495 ft 194 kts 310°
2026-05-05 13:12 43.87759 -102.94660 5498 ft 192 kts 338°
2026-05-05 13:12 43.89043 -102.95055 5516 ft 191 kts 346°
2026-05-05 13:12 43.90323 -102.95632 5510 ft 192 kts 338°
2026-05-05 13:12 43.91534 -102.96361 5508 ft 192 kts 335°
2026-05-05 13:13 43.92730 -102.97175 5439 ft 194 kts 333°
2026-05-05 13:13 43.93951 -102.98050 5204 ft 202 kts 333°
2026-05-05 13:13 43.95196 -102.98961 4950 ft 201 kts 332°
2026-05-05 13:13 43.96394 -102.99844 4655 ft 186 kts 332°
2026-05-05 13:14 43.97487 -103.00652 4369 ft 172 kts 332°
2026-05-05 13:14 43.98505 -103.01405 4107 ft 161 kts 332°
2026-05-05 13:14 43.99475 -103.02123 3920 ft 158 kts 332°
2026-05-05 13:14 44.00431 -103.02830 3749 ft 155 kts 332°
2026-05-05 13:15 44.01384 -103.03535 3555 ft 154 kts 332°
2026-05-05 13:15 44.02309 -103.04221 3355 ft 150 kts 332°
2026-05-05 13:15 44.03217 -103.04893 3151 ft 144 kts 333°
2026-05-05 13:15 44.04030 -103.05499 3155 ft 119 kts 332°
2026-05-05 13:16 44.04453 -103.05810 3170 ft 37 kts 331°
2026-05-05 13:16 44.04693 -103.05985 3179 ft 39 kts 333°
2026-05-05 13:16 44.04797 -103.06145 3180 ft 20 kts 251°
2026-05-05 13:16 44.04690 -103.06181 3174 ft 19 kts 152°
2026-05-05 13:17 44.04574 -103.06094 3172 ft 19 kts 153°
2026-05-05 13:17 44.04457 -103.06008 3170 ft 18 kts 152°
2026-05-05 13:17 44.04344 -103.05925 3168 ft 18 kts 152°
2026-05-05 13:17 44.04224 -103.05872 3166 ft 18 kts 191°
2026-05-05 13:18 44.04094 -103.05936 3164 ft 19 kts 197°
2026-05-05 13:18 44.04001 -103.05883 3164 ft 14 kts 121°
2026-05-05 13:18 44.03961 -103.05915 3162 ft 8 kts 252°
2026-05-05 13:18 44.03956 -103.05942 3161 ft 0 kts 256°